[[{"header":{"parameterUnit":"m.s-1","parameterCategory":2,"la1":30.2992,"la2":30.254,"lo1":-89.0895,"lo2":-89.0443,"dy":0.0025,"dx":0.0025,"nx":19,"ny":19,"refTime":"2026-03-08T21:00:00:Z","depth":"0","parameterNumber":2,"parameterNumberName":"U-component_of_CURRENTS"},"data":[0,0,0,0.2899,0.2899,0.2923,0.2923,0.2933,0.2933,0,0,0,0,0,0,0,0,0,0,0,0.288,0.288,0.2899,0.29,0.2923,0.2923,0.2933,0.2933,0,0,0,0,0,0,0,0,0,0,0,0.2879,0.288,0.288,0.29,0.2923,0.2923,0.2933,0.2917,0,0,0,0,0,0,0,0,0,0,0.2895,0.2889,0.288,0.288,0.29,0.2923,0.2923,0.2916,0.2918,0.292,0,0.2926,0,0.294,0.2935,0.2935,0,0,0,0.2887,0.2887,0.2895,0.288,0.29,0.2923,0.2909,0.2917,0.2919,0.2923,0.2926,0.2927,0.2941,0.2935,0.2935,0.3009,0.3009,0,0,0.2886,0.2882,0.2894,0.2896,0.2909,0.2908,0.291,0.2919,0.2921,0.2926,0.2928,0.2941,0.2935,0.2935,0.3008,0.3009,0,0,0,0.289,0.2881,0.2889,0.2895,0.2907,0.2909,0.2911,0.292,0.2923,0.2928,0.2941,0.2935,0.2935,0.3007,0.3008,0.3028,0,0,0,0.2889,0.2885,0.2888,0.2886,0.2907,0.2919,0.2912,0.2922,0.2924,0.2941,0.2935,0.2935,0.3007,0.3008,0.3026,0.3024,0,0,0,0.2878,0.2884,0.2888,0.2886,0.2903,0.2919,0.2922,0.2922,0.2932,0.2935,0.2935,0.3006,0.3008,0.3024,0.3021,0.3046,0,0,0,0.2872,0.2891,0.2888,0.2917,0.2903,0.2944,0.2922,0.2946,0.2952,0.2935,0.3007,0.3008,0.3024,0.3019,0.3044,0.3061,0.307,0,0,0.2895,0.2893,0.2913,0.2911,0.2947,0.2939,0.2982,0.2976,0.2977,0.2998,0.3,0.3027,0.3021,0.3046,0.3151,0.3157,0,0,0,0.292,0.2926,0.294,0.2958,0.2984,0.3002,0.3007,0.3014,0.3034,0.2991,0.3053,0.3049,0.3064,0.3072,0.3077,0.2861,0.3016,0.3015,0.3015,0.294,0.2951,0.2975,0.299,0.3016,0.3046,0.3063,0.3076,0.3071,0.3094,0.3085,0.3144,0.3154,0.3158,0.2936,0.3115,0.3115,0.3115,0.3115,0.2962,0.2963,0.2984,0.3004,0.303,0.3062,0.3108,0.3114,0.3149,0.3135,0.3149,0.3117,0.3165,0.2926,0.3117,0.3116,0.3116,0.3116,0.3116,0.2954,0.2949,0.2966,0.2988,0.3019,0.306,0.3093,0.313,0.3162,0.3181,0.3195,0.3194,0.2965,0.3193,0.3193,0.3193,0.3193,0.3193,0.3193,0.2923,0.2938,0.2942,0.2969,0.2983,0.3017,0.3083,0.3114,0.3183,0.3218,0.3219,0.2965,0.3167,0.3142,0.3195,0.3195,0.3194,0.3194,0.3194,0.2881,0.2898,0.2906,0.2918,0.2942,0.2936,0.3019,0.3098,0.316,0.3195,0.3001,0.3244,0.3236,0.3232,0.321,0.3277,0.3277,0.3277,0.3277,0.285,0.286,0.2865,0.2873,0.2883,0.2896,0.2869,0.2948,0.2979,0.2957,0.2911,0.286,0.2866,0.2832,0.2837,0.2804,0.2767,0.2766,0.2765,0.2817,0.2837,0.2822,0.2839,0.2849,0.2826,0.2737,0.2677,0.2745,0.2718,0.2601,0.2623,0.252,0.2547,0.2474,0.2499,0.244,0,0]},{"header":{"parameterUnit":"m.s-1","parameterCategory":2,"la1":30.2992,"la2":30.254,"lo1":-89.0895,"lo2":-89.0443,"dy":0.0025,"dx":0.0025,"nx":19,"ny":19,"refTime":"2026-03-08T21:00:00:Z","depth":"0","parameterNumber":3,"parameterNumberName":"V-component_of_CURRENTS"},"data":[0,0,0,0.0306,0.0308,0.0395,0.0395,0.0463,0.0464,0,0,0,0,0,0,0,0,0,0,0,0.0266,0.0267,0.0306,0.0308,0.0394,0.0395,0.0463,0.0464,0,0,0,0,0,0,0,0,0,0,0,0.0266,0.0267,0.0267,0.0308,0.0394,0.0395,0.0463,0.0409,0,0,0,0,0,0,0,0,0,0,0.033,0.0284,0.0267,0.0267,0.0309,0.0394,0.0395,0.0407,0.0412,0.0411,0,0.0418,0,0.0444,0.0467,0.0467,0,0,0,0.0311,0.0279,0.0319,0.0267,0.0309,0.0394,0.0356,0.041,0.0416,0.0418,0.0419,0.0422,0.0446,0.0467,0.0467,0.0495,0.0495,0,0,0.0306,0.0269,0.0314,0.0322,0.0323,0.0353,0.0359,0.0414,0.0406,0.0419,0.0424,0.0447,0.0468,0.0468,0.0495,0.0495,0,0,0,0.029,0.0265,0.0304,0.0319,0.0339,0.0356,0.0362,0.0403,0.0421,0.0425,0.0448,0.0468,0.0468,0.0495,0.0495,0.0487,0,0,0,0.0287,0.0256,0.0301,0.0278,0.0338,0.0375,0.0349,0.0417,0.0424,0.0447,0.0468,0.0469,0.0495,0.0495,0.0488,0.0513,0,0,0,0.0264,0.0254,0.0265,0.0276,0.0316,0.0375,0.0395,0.0419,0.0437,0.0467,0.0469,0.0495,0.0495,0.0488,0.0512,0.0617,0,0,0,0.0223,0.0208,0.0263,0.0256,0.0315,0.0358,0.0395,0.0426,0.0448,0.0468,0.0495,0.0495,0.0488,0.0512,0.0615,0.0785,0.0808,0,0,0.018,0.0202,0.02,0.0252,0.0283,0.0347,0.0376,0.0423,0.0445,0.0474,0.0476,0.0488,0.0512,0.0616,0.0774,0.0798,0,0,0,0.0172,0.0179,0.0194,0.023,0.0278,0.0344,0.0392,0.0421,0.0462,0.0459,0.0486,0.0503,0.0569,0.0667,0.0685,0.0636,0.0494,0.0494,0.0494,0.0074,0.0129,0.0148,0.0223,0.0255,0.034,0.0392,0.0443,0.0446,0.0463,0.0494,0.0565,0.0665,0.0682,0.0626,0.0476,0.0476,0.0476,0.0476,0.0056,0.0094,0.0152,0.0196,0.0271,0.0311,0.0406,0.0435,0.0531,0.0492,0.0557,0.0649,0.0702,0.0635,0.0475,0.0475,0.0476,0.0476,0.0476,0.0039,0.0071,0.0102,0.0186,0.0252,0.0328,0.0452,0.0493,0.0548,0.0597,0.0774,0.0776,0.073,0.0648,0.0649,0.0649,0.0649,0.065,0.065,0.0026,0.0064,0.0119,0.0193,0.0252,0.0352,0.0492,0.0598,0.0762,0.0815,0.0817,0.0757,0.062,0.0626,0.0659,0.0657,0.0656,0.0655,0.0655,0.0059,0.0068,0.0152,0.021,0.0355,0.0528,0.062,0.0903,0.1001,0.1124,0.1034,0.0958,0.1004,0.099,0.1007,0.1136,0.1136,0.1136,0.1136,0.0079,0.009,0.0219,0.0325,0.0462,0.0621,0.097,0.121,0.1302,0.1324,0.1198,0.1148,0.1131,0.1177,0.116,0.1176,0.1346,0.1346,0.1345,0.0126,0.0154,0.0262,0.0363,0.0524,0.077,0.117,0.1526,0.1543,0.1338,0.1091,0.1082,0.0983,0.096,0.1007,0.0987,0.1005,0,0]}],[{"header":{"parameterUnit":"m.s-1","parameterCategory":2,"la1":30.2992,"la2":30.254,"lo1":-89.0895,"lo2":-89.0443,"dy":0.0025,"dx":0.0025,"nx":19,"ny":19,"refTime":"2026-03-08T21:00:00:Z","depth":"2","parameterNumber":2,"parameterNumberName":"U-component_of_CURRENTS"},"data":[0,0,0,0.1401,0.1402,0.1469,0.1469,0.1537,0.1537,0,0,0,0,0,0,0,0,0,0,0,0.1397,0.1398,0.14,0.1402,0.1469,0.1469,0.1537,0.1537,0,0,0,0,0,0,0,0,0,0,0,0.1397,0.1398,0.1399,0.1402,0.1469,0.147,0.1536,0.149,0,0,0,0,0,0,0,0,0,0,0.1427,0.1409,0.1398,0.1399,0.1403,0.1469,0.147,0.1488,0.1493,0.1502,0,0.1534,0,0.153,0.1542,0.1542,0,0,0,0.1399,0.1405,0.1439,0.14,0.1404,0.1469,0.1438,0.1491,0.1496,0.1508,0.1535,0.1537,0.1531,0.1542,0.1542,0.1659,0.166,0,0,0.1396,0.1388,0.1436,0.1444,0.1449,0.1436,0.144,0.1494,0.1502,0.1535,0.1538,0.1532,0.1542,0.1543,0.1658,0.1659,0,0,0,0.1387,0.1385,0.1419,0.1441,0.1452,0.1438,0.1443,0.1499,0.1516,0.1539,0.1533,0.1543,0.1544,0.1657,0.1659,0.1732,0,0,0,0.1385,0.1381,0.1418,0.141,0.1451,0.1473,0.1447,0.1513,0.1518,0.1533,0.1543,0.1544,0.1656,0.1658,0.1728,0.1785,0,0,0,0.1389,0.1379,0.1401,0.141,0.144,0.1472,0.1491,0.1514,0.1515,0.1542,0.1544,0.1656,0.1658,0.1725,0.1778,0.1886,0,0,0,0.1359,0.1396,0.1401,0.1441,0.144,0.1489,0.1491,0.1528,0.1555,0.1543,0.1657,0.1658,0.1724,0.1774,0.1881,0.1717,0.1727,0,0,0.1385,0.1399,0.1423,0.1429,0.1511,0.1478,0.1537,0.1576,0.1587,0.1635,0.1638,0.173,0.1778,0.1885,0.1826,0.1833,0,0,0,0.1417,0.146,0.1481,0.153,0.1548,0.1603,0.1604,0.1616,0.1695,0.1613,0.1748,0.1776,0.1842,0.1732,0.1738,0.1667,0.1667,0.1667,0.1667,0.1504,0.1516,0.157,0.1614,0.1649,0.1681,0.172,0.1745,0.1733,0.1793,0.1849,0.2,0.1881,0.1884,0.1849,0.185,0.185,0.185,0.185,0.1584,0.1607,0.1644,0.1705,0.1756,0.1807,0.186,0.1875,0.1982,0.1933,0.1993,0.1829,0.1895,0.1857,0.1855,0.1855,0.1854,0.1853,0.1853,0.1656,0.1647,0.1699,0.1766,0.1853,0.1904,0.1984,0.2043,0.209,0.2148,0.2073,0.2068,0.2065,0.2208,0.2209,0.221,0.2211,0.2211,0.2212,0.1668,0.1701,0.1745,0.1828,0.1873,0.1968,0.2094,0.2143,0.2195,0.2171,0.2169,0.2122,0.211,0.2088,0.2223,0.2221,0.222,0.2218,0.2218,0.169,0.1696,0.1736,0.1783,0.1876,0.1887,0.2038,0.209,0.2208,0.2189,0.217,0.2168,0.2142,0.2132,0.2111,0.2245,0.2245,0.2245,0.2245,0.1664,0.1684,0.1666,0.1702,0.1775,0.1829,0.1782,0.1799,0.1924,0.1931,0.1945,0.1779,0.1784,0.173,0.1729,0.1696,0.1723,0.1722,0.1721,0.1629,0.1615,0.1576,0.1613,0.1691,0.1703,0.1557,0.1443,0.1516,0.17,0.1846,0.2211,0.1996,0.1994,0.1927,0.1921,0.1874,0,0]},{"header":{"parameterUnit":"m.s-1","parameterCategory":2,"la1":30.2992,"la2":30.254,"lo1":-89.0895,"lo2":-89.0443,"dy":0.0025,"dx":0.0025,"nx":19,"ny":19,"refTime":"2026-03-08T21:00:00:Z","depth":"2","parameterNumber":3,"parameterNumberName":"V-component_of_CURRENTS"},"data":[0,0,0,0.0143,0.0143,0.0122,0.0122,0.0086,0.0086,0,0,0,0,0,0,0,0,0,0,0,0.0132,0.0132,0.0143,0.0143,0.0122,0.0122,0.0086,0.0086,0,0,0,0,0,0,0,0,0,0,0,0.0132,0.0132,0.0132,0.0143,0.0122,0.0122,0.0086,0.0098,0,0,0,0,0,0,0,0,0,0,0.0118,0.0118,0.0132,0.0132,0.0143,0.0122,0.0122,0.0099,0.0098,0.01,0,0.0099,0,0.0109,0.0085,0.0085,0,0,0,0.012,0.0119,0.0121,0.0132,0.0143,0.0122,0.0125,0.0098,0.0097,0.0098,0.0099,0.0098,0.0109,0.0085,0.0085,0.0136,0.0137,0,0,0.0122,0.0121,0.0122,0.012,0.0141,0.0126,0.0125,0.0097,0.0093,0.0098,0.0097,0.0108,0.0085,0.0085,0.0136,0.0136,0,0,0,0.014,0.0122,0.0123,0.0121,0.0128,0.0126,0.0124,0.0093,0.0096,0.0097,0.0108,0.0085,0.0085,0.0135,0.0136,0.0246,0,0,0,0.014,0.0134,0.0124,0.0122,0.0129,0.0114,0.0121,0.0097,0.0095,0.0108,0.0085,0.0085,0.0134,0.0135,0.0242,0.0273,0,0,0,0.0133,0.0134,0.0134,0.0122,0.0126,0.0114,0.0114,0.0096,0.0103,0.0085,0.0085,0.0134,0.0135,0.0238,0.0267,0.033,0,0,0,0.0129,0.0161,0.0133,0.0174,0.0127,0.0177,0.0114,0.0133,0.0126,0.0085,0.0134,0.0136,0.0236,0.0263,0.0326,0.0401,0.0426,0,0,0.0178,0.0167,0.0195,0.0171,0.0232,0.0177,0.0249,0.0203,0.0146,0.0137,0.0138,0.0243,0.0266,0.0329,0.0485,0.0509,0,0,0,0.0218,0.0232,0.0247,0.0268,0.0287,0.0303,0.0274,0.0266,0.0245,0.0152,0.0242,0.0253,0.029,0.0325,0.0344,0.0143,0.0143,0.0142,0.0142,0.0263,0.0281,0.0333,0.0354,0.0378,0.0399,0.0419,0.0395,0.0336,0.0342,0.0343,0.0463,0.0504,0.0519,0.0351,0.0351,0.0352,0.0352,0.0352,0.0343,0.0373,0.0389,0.0433,0.0451,0.0489,0.0527,0.0506,0.0538,0.0451,0.0482,0.044,0.0546,0.0361,0.0359,0.0358,0.0357,0.0357,0.0356,0.0355,0.038,0.0389,0.0453,0.0496,0.0523,0.0621,0.062,0.0605,0.0654,0.0661,0.066,0.0525,0.0659,0.0659,0.066,0.066,0.066,0.0661,0.0364,0.0391,0.0431,0.0478,0.0513,0.0574,0.0658,0.0734,0.0795,0.0777,0.0777,0.0566,0.0556,0.0542,0.0668,0.0666,0.0665,0.0665,0.0664,0.0406,0.0406,0.0491,0.0528,0.0631,0.0775,0.0824,0.099,0.1021,0.1083,0.0859,0.0852,0.0819,0.0803,0.0794,0.0977,0.0977,0.0977,0.0977,0.0435,0.0442,0.0569,0.0658,0.0772,0.0885,0.1133,0.1175,0.1135,0.1012,0.1009,0.0956,0.0945,0.0912,0.0893,0.0883,0.109,0.1089,0.1089,0.049,0.0539,0.0626,0.071,0.0841,0.1051,0.1277,0.1264,0.1069,0.1086,0.0948,0.1001,0.0914,0.0899,0.0835,0.0811,0.0788,0,0]}],[{"header":{"parameterUnit":"m.s-1","parameterCategory":2,"la1":30.2992,"la2":30.254,"lo1":-89.0895,"lo2":-89.0443,"dy":0.0025,"dx":0.0025,"nx":19,"ny":19,"refTime":"2026-03-08T21:00:00:Z","depth":"4","parameterNumber":2,"parameterNumberName":"U-component_of_CURRENTS"},"data":[0,0,0,0.0507,0.0509,0.0624,0.0625,0.0776,0.0778,0,0,0,0,0,0,0,0,0,0,0,0.047,0.0471,0.0507,0.0509,0.0624,0.0625,0.0776,0.0778,0,0,0,0,0,0,0,0,0,0,0,0.047,0.0471,0.0471,0.051,0.0624,0.0625,0.0776,0.0693,0,0,0,0,0,0,0,0,0,0,0.0583,0.0553,0.047,0.0471,0.051,0.0623,0.0625,0.0689,0.0698,0.072,0,0.0729,0,0.0748,0.0786,0.0787,0,0,0,0.0528,0.0546,0.056,0.0471,0.0511,0.0623,0.0578,0.0694,0.0704,0.0732,0.0731,0.0737,0.075,0.0787,0.0788,0.0884,0.0884,0,0,0.0522,0.0512,0.0553,0.0566,0.0529,0.0574,0.0581,0.07,0.0716,0.0732,0.074,0.0753,0.0788,0.0789,0.0884,0.0884,0,0,0,0.0491,0.0507,0.052,0.056,0.0575,0.0577,0.0585,0.0711,0.071,0.0742,0.0755,0.0789,0.079,0.0883,0.0884,0.0903,0,0,0,0.0488,0.0487,0.0516,0.0515,0.0572,0.0647,0.0593,0.0702,0.0716,0.0754,0.0789,0.0791,0.0883,0.0884,0.0902,0.0915,0,0,0,0.0467,0.0486,0.0491,0.0513,0.0552,0.0645,0.0653,0.0706,0.0723,0.0787,0.0792,0.0883,0.0883,0.0901,0.0913,0.0991,0,0,0,0.0463,0.0475,0.0491,0.051,0.055,0.0605,0.0653,0.0712,0.0763,0.0789,0.0883,0.0884,0.0901,0.0912,0.0989,0.0838,0,0,0,0.0472,0.0476,0.0484,0.05,0.0539,0.0592,0.0658,0.0742,0.0775,0.0848,0.085,0.0902,0.0913,0.099,0.0852,0,0,0,0,0.0482,0.0486,0.0501,0.0528,0.057,0.0637,0.0709,0.0752,0.0836,0.0803,0.0901,0.0908,0.0956,0.0862,0.0885,0.0885,0.0885,0.0885,0.0885,0.0469,0.0487,0.0512,0.0544,0.0589,0.0676,0.0741,0.0813,0.084,0.0875,0.0923,0.0992,0.0889,0.0919,0.0919,0.0919,0.092,0.092,0.092,0.0462,0.047,0.0517,0.055,0.0618,0.0687,0.0798,0.0839,0.0957,0.0938,0.0986,0.0884,0.0922,0.0921,0.0921,0.0921,0.0921,0.092,0.092,0.043,0.0444,0.0473,0.0534,0.0618,0.0709,0.0815,0.09,0.0982,0.103,0.0979,0.1028,0.1031,0.1078,0.1078,0.1079,0.1079,0.1079,0.1079,0.0391,0.0424,0.0448,0.0523,0.0571,0.0678,0.0835,0.0908,0.1007,0.0994,0.1061,0.1046,0.1041,0.1041,0.1085,0.1084,0.1084,0.1083,0.1083,0.0346,0.038,0.0401,0.0437,0.0534,0.0604,0.0769,0.0889,0.0974,0.1003,0.0988,0.0991,0.0985,0.0982,0.098,0.1008,0.1006,0.1004,0,0.032,0.0336,0.0358,0.0379,0.0433,0.0546,0.0638,0.0751,0.0861,0.0829,0.0962,0.0938,0.0941,0.0925,0.092,0.0911,0,0,0,0.0293,0.0308,0.0298,0.0324,0.0366,0.0504,0.0656,0.0672,0.0854,0.0877,0.0961,0.0972,0.0992,0.1103,0.1103,0.1096,0.1098,0,0]},{"header":{"parameterUnit":"m.s-1","parameterCategory":2,"la1":30.2992,"la2":30.254,"lo1":-89.0895,"lo2":-89.0443,"dy":0.0025,"dx":0.0025,"nx":19,"ny":19,"refTime":"2026-03-08T21:00:00:Z","depth":"4","parameterNumber":3,"parameterNumberName":"V-component_of_CURRENTS"},"data":[0,0,0,0.0285,0.0286,0.0278,0.0278,0.0234,0.0233,0,0,0,0,0,0,0,0,0,0,0,0.0287,0.0287,0.0285,0.0286,0.0278,0.0278,0.0234,0.0233,0,0,0,0,0,0,0,0,0,0,0,0.0287,0.0287,0.0287,0.0286,0.0278,0.0278,0.0234,0.0245,0,0,0,0,0,0,0,0,0,0,0.0255,0.0266,0.0287,0.0288,0.0286,0.0278,0.0278,0.0246,0.0244,0.0231,0,0.0241,0,0.0242,0.0231,0.0231,0,0,0,0.0272,0.0267,0.0269,0.0288,0.0286,0.0278,0.0278,0.0245,0.0243,0.0229,0.024,0.0239,0.0241,0.0231,0.023,0.026,0.0261,0,0,0.0272,0.0278,0.027,0.0268,0.0297,0.0278,0.0278,0.0244,0.0245,0.024,0.0238,0.0241,0.023,0.023,0.026,0.026,0,0,0,0.0283,0.0278,0.0281,0.027,0.0275,0.0278,0.0278,0.0246,0.0249,0.0238,0.024,0.023,0.023,0.0259,0.026,0.0327,0,0,0,0.0282,0.0286,0.0282,0.0284,0.0276,0.0266,0.0281,0.0251,0.0247,0.024,0.023,0.0229,0.0258,0.0259,0.0323,0.0349,0,0,0,0.0285,0.0286,0.029,0.0284,0.0288,0.0266,0.0266,0.025,0.0249,0.0231,0.0229,0.0258,0.0259,0.0321,0.0344,0.0349,0,0,0,0.0283,0.0311,0.029,0.0323,0.0288,0.0321,0.0266,0.028,0.0273,0.023,0.0258,0.026,0.032,0.0341,0.0347,0.0322,0,0,0,0.0321,0.0316,0.0337,0.0318,0.0366,0.032,0.0361,0.0324,0.0287,0.0262,0.0263,0.0325,0.0343,0.0348,0.0407,0,0,0,0,0.0351,0.0367,0.0379,0.0398,0.0407,0.0413,0.0383,0.0364,0.0346,0.0291,0.0335,0.0345,0.0346,0.0325,0.0267,0.0267,0.0266,0.0266,0.0266,0.0411,0.0415,0.0455,0.0465,0.0484,0.0479,0.0474,0.0442,0.0405,0.0412,0.0408,0.0469,0.0453,0.0418,0.0418,0.0419,0.0419,0.0419,0.0419,0.0472,0.0491,0.0504,0.0545,0.0553,0.0585,0.056,0.0533,0.0511,0.0478,0.0475,0.0409,0.0426,0.0425,0.0424,0.0423,0.0423,0.0422,0.0422,0.0506,0.0513,0.054,0.0592,0.0642,0.0652,0.0676,0.0639,0.0576,0.0576,0.0528,0.0505,0.0487,0.0572,0.0572,0.0572,0.0572,0.0572,0.0572,0.0519,0.0544,0.0586,0.0641,0.0693,0.0744,0.0742,0.0714,0.0653,0.06,0.0593,0.0519,0.0514,0.0496,0.0575,0.0574,0.0574,0.0574,0.0574,0.0538,0.0554,0.0613,0.0666,0.0774,0.0809,0.082,0.0742,0.0705,0.0641,0.0596,0.0594,0.0558,0.0552,0.0532,0.0626,0.0626,0.0626,0,0.0546,0.0557,0.0635,0.0719,0.0801,0.0846,0.0816,0.0772,0.0675,0.0671,0.0687,0.0641,0.0637,0.0599,0.0593,0.0573,0,0,0,0.0551,0.0574,0.0629,0.0715,0.0818,0.0809,0.0805,0.0763,0.071,0.0643,0.0625,0.0625,0.0608,0.0582,0.0522,0.0516,0.0482,0,0]}]]